Location: *
(42.4833°N, 26.0000°E)
Time: 00:49:13
(UTC+00:00)

Daily predictions for brighter satellites

Satellite Brightness Start Highest point End
(mag) Time Altitude Azimuth Time Altitude Azimuth Time Altitude Azimuth
SJ 16-02 4.1 02:22:57 14° ENE 02:22:57 14° ENE 02:25:12 10° E
Cosmos 1844 Rocket 3.7 02:34:14 43° ENE 02:34:14 43° ENE 02:39:10 10° SE
Cosmos 2333 Rocket 4.1 02:32:08 10° SSE 02:36:42 26° ESE 02:41:17 10° NE
ADEOS 4.1 02:45:56 10° NNE 02:50:50 57° E 02:50:50 57° E
NOSS 2-1 (D) 4.5 02:53:09 74° SSE 02:53:09 74° SSE 03:00:03 10° SSE
Cosmos 2219 Rocket 3.8 02:50:10 10° SSE 02:55:04 32° ESE 02:59:59 10° NE
Cosmos 2233 Rocket 4.1 02:50:23 10° S 02:56:38 73° E 03:02:51 10° NNE
BREEZE-M DEB (TANK) 4.4 02:59:45 42° NW 03:03:00 59° N 03:07:37 10° E
Cosmos 44 3.5 03:09:39 83° ENE 03:09:39 83° ENE 03:15:04 10° SE
SL-16 R/B 4.0 03:13:51 19° N 03:13:51 19° N 03:15:36 10° N
Cosmos 2322 Rocket 3.7 03:22:03 22° N 03:22:03 22° N 03:24:25 10° N
CZ-4B R/B 3.7 03:18:06 10° NNE 03:21:33 44° E 03:25:01 10° S
Cosmos 2360 Rocket 2.4 03:22:34 51° NNW 03:22:34 51° NNW 03:27:11 10° NNE
Meteor 1-24 Rocket 3.7 03:18:28 26° N 03:21:40 80° E 03:27:15 10° SSE
deb Chang Zheng 4 3.9 03:18:26 10° NNE 03:22:40 62° ESE 03:26:51 10° S
Cosmos 1758 4.4 03:28:06 10° SSE 03:31:55 45° E 03:35:48 10° NNE
USA 276 3.7 03:33:45 34° ENE 03:33:45 34° ENE 03:35:54 10° E
Cosmos 1892 Rocket 4.4 03:29:54 10° N 03:34:07 48° ENE 03:38:21 10° SSE
ATLAS 5 CENTAUR R/B 3.0 03:34:11 25° NE 03:34:11 25° NE 03:37:16 10° ESE
SAR-Lupe-4 4.0 03:37:52 10° SSE 03:41:23 60° ENE 03:42:47 33° N
Cosmos 1844 3.7 03:41:47 36° NW 03:44:07 66° WSW 03:49:50 10° S
GEOS 3 Rocket 3.7 03:39:16 10° SSE 03:44:31 59° WSW 03:46:11 41° WNW
COSMO-SKYMED 1 2.4 03:41:07 10° S 03:45:25 65° WSW 03:46:18 51° NW
BREEZE-M DEB (TANK) 4.1 03:46:32 37° NW 03:48:19 52° N 04:02:29 10° ENE
Tsikada Rocket 4.5 03:52:33 34° W 03:52:33 34° W 03:57:42 10° SSW
BREEZE-M (TANK) 3.3 03:53:30 24° NE 03:53:30 24° NE 03:54:42 10° ENE
SAR-Lupe-1 4.0 03:49:23 10° SSE 03:52:57 83° ENE 03:54:38 30° N
Cosmos 1898 Rocket 4.1 03:50:03 10° NNW 03:55:10 55° ENE 04:00:13 10° SE
Cosmos 1867 4.1 03:55:11 35° WNW 03:55:48 36° NW 04:00:51 10° NNE
FALCON 9 R/B 3.8 03:58:23 11° SW 03:59:53 12° SSW 04:01:30 10° S
Lacrosse 5 rocket 3.5 03:58:44 12° N 04:00:10 14° NNE 04:02:15 10° NE
Okean 1-7 Rocket 4.1 03:56:49 10° N 04:01:22 63° E 04:05:50 10° SSE
Cosmos 1470 2.8 03:57:46 10° SSW 04:01:32 52° W 04:05:20 10° N
SJ 16-02 1.3 03:59:58 33° NW 04:01:45 59° WSW 04:06:02 10° S
Cosmos 1763 Rocket 3.6 03:57:31 10° SSW 04:02:38 79° ESE 04:07:51 10° NNE
Cosmos 921 Rocket 3.0 04:02:08 10° SSW 04:06:26 79° ESE 04:10:41 10° NNE
Cosmos 1544 Rocket 4.0 04:04:46 10° S 04:09:03 64° E 04:13:20 10° NNE
Meteor PRIRODA 3.8 04:05:52 10° N 04:09:20 45° WNW 04:12:48 10° SSW
YAOGAN 6 2.6 04:06:43 10° NNE 04:10:25 85° ESE 04:14:06 10° S
Cosmos 1689 Rocket 2.0 04:08:29 10° S 04:11:21 56° W 04:11:47 49° WNW
GPS 2-04 Rocket1 4.1 04:11:05 19° SW 04:13:12 30° S 04:16:52 10° ESE
ERS-2 2.7 04:10:17 10° SSW 04:13:38 34° W 04:14:02 33° W
PSLV R/B 4.0 04:09:41 10° S 04:13:41 56° W 04:17:16 13° NNW
Cosmos 1356 Rocket 3.7 04:11:31 10° SW 04:15:18 39° WNW 04:19:10 10° N
Cosmos 1461 3.8 04:11:45 10° SSW 04:16:17 58° ESE 04:20:59 10° NE
Cosmos 2278 Rocket 2.9 04:11:15 10° NNW 04:16:51 55° ENE 04:22:23 10° SE
SL-8 R/B 4.3 04:14:32 24° NW 04:17:07 46° NNE 04:21:47 10° E
Cosmos 2084 3.4 04:13:45 14° SW 04:17:16 61° NW 04:21:35 10° NNE
Cosmos 1844 Rocket 3.6 04:15:58 24° WNW 04:17:31 27° WSW 04:22:08 10° SSW
MOS 1 Rocket 3.7 04:13:28 10° S 04:18:29 49° W 04:23:16 10° NNW
Cosmos 2322 4.1 04:13:37 10° SW 04:18:59 41° WNW 04:24:24 10° NNE
DMSP B5D1-3 4.4 04:15:17 10° S 04:20:24 80° WSW 04:25:33 10° NNW
Cosmos 2333 Rocket 2.4 04:15:15 10° SW 04:20:39 46° WNW 04:26:07 10° NNE
Nadezhda 4 Rocket 4.1 04:14:33 10° N 04:20:43 80° E 04:26:49 10° S
Meteor 2-10 4.3 04:19:13 10° SSW 04:24:46 53° WNW 04:30:13 10° N
NOAA 6 4.1 04:20:49 10° NNE 04:26:02 84° ESE 04:31:13 10° SSW
Cosmos 2237 Rocket 2.8 04:21:49 10° S 04:27:21 60° ESE 04:32:57 10° NNE
Cosmos 468 Rocket 4.0 04:24:22 10° SW 04:29:29 56° WNW 04:34:42 10° NNE
Cosmos 1726 2.7 04:26:13 10° SW 04:29:37 34° WNW 04:33:04 10° N
Cosmos 1626 Rocket 4.0 04:25:29 10° N 04:29:56 67° E 04:34:23 10° SSE
PSLV R/B 3.8 04:28:18 10° N 04:32:10 61° WNW 04:36:05 10° SSW
H-2A R/B 3.5 04:32:55 10° N 04:36:06 28° WNW 04:39:18 10° SW
Cosmos 1937 Rocket 3.5 04:31:01 10° NNW 04:36:21 89° WSW 04:41:35 10° SSE
Cosmos 1455 Rocket 3.4 04:32:25 10° SSW 04:36:32 40° WNW 04:40:39 10° N
Okean O Rocket 2.5 04:32:17 10° NNE 04:36:35 53° E 04:40:50 10° S
Envisat 3.1 04:33:39 10° N 04:38:36 55° WNW 04:43:32 10° SSW
Cosmos 2219 Rocket 2.7 04:33:45 10° SW 04:38:54 37° WNW 04:44:05 10° N
COSMOS 2428 3.0 04:34:12 10° SW 04:39:37 44° WNW 04:45:03 10° NNE
Cosmos 1953 2.3 04:37:40 10° SSW 04:41:36 57° W 04:45:32 10° N
Cosmos 1340 3.2 04:38:59 10° N 04:42:42 61° ENE 04:46:25 10° SSE
CZ-2C R/B 2.6 04:39:30 10° SSE 04:44:42 89° W 04:49:59 10° NNW
Cosmos 44 Rocket 3.8 04:42:51 10° NNW 04:48:04 66° NE 04:53:15 10° SE
DMSP B5D2-2 4.3 04:45:55 10° SSE 04:51:07 75° ENE 04:56:24 10° N
Cosmos 372 Rocket 4.5 04:46:00 10° NNW 04:51:14 65° ENE 04:56:26 10° SSE
USA 215 4.4 04:46:17 10° E 04:51:58 33° NNE 04:57:41 10° NW
CZ-2C R/B 4.1 04:54:20 10° S 04:55:27 11° SSE 04:56:32 10° SE
CZ-4B R/B 4.4 04:54:46 10° NW 04:56:16 12° WNW 04:57:47 10° W
Lacrosse 4 Rocket 3.8 04:54:16 10° S 04:57:52 29° ESE 05:01:36 10° NE
BREEZE M DEB (TANK) 2.5 04:56:00 10° SW 04:58:08 52° SE 05:02:08 10° ENE
Cosmos 2026 Rocket 4.3 04:52:22 10° N 04:58:42 75° E 05:05:04 10° SSE
Cosmos 1980 3.7 04:53:29 10° SSW 04:59:08 73° WNW 05:04:49 10° NNE
NOAA 11 4.3 04:55:16 10° NNE 05:00:47 89° ESE 05:06:15 10° SSW
CZ-4B DEB 4.5 04:59:31 10° N 05:04:49 47° WNW 05:10:06 10° SW
Cosmos 2360 Rocket 4.0 05:05:27 10° NW 05:06:55 11° NW 05:08:22 10° NNW
Cosmos 1602 Rocket 3.6 05:04:01 10° NNW 05:08:25 64° W 05:12:49 10° S
CORIOLIS 4.1 05:03:17 10° N 05:08:38 74° WNW 05:13:56 10° SSW
USA 276 3.4 05:06:16 10° W 05:09:00 27° SW 05:11:42 10° SSE
CZ-2D R/B 4.4 05:06:04 10° NNE 05:09:47 49° E 05:13:28 10° S
Cosmos 1300 3.1 05:11:41 10° S 05:15:27 71° E 05:19:15 10° NNE
NOAA 12 4.3 05:10:44 10° N 05:15:49 51° WNW 05:20:55 10° SW
NOSS 3-2 (A) 4.4 05:12:16 10° SSW 05:17:35 51° ESE 05:23:36 10° NE
